Regional Weather Roundup
Issued by NWS

Home | Current Version | Previous Version | Graphics & Text | Print | Product List | Glossary On
Versions: 1 2 3 4 5 6 7 8 9 10 11 12 13 14 15 16 17 18 19 20 21 22 23 24 25 26 27 28 29 30 31 32 33 34 35 36 37 38 39 40 41 42 43 44 45 46 47 48 49 50
000
ASUS43 KOAX 280402
RWRNE

WEATHER ROUNDUP FOR NEBRASKA
NATIONAL WEATHER SERVICE OMAHA NE
1100 PM CDT FRI MAY 27 2016

NOTES: SATELLITE DATA IS BEING USED TO AUGMENT CLOUD COVER ABOVE
       12000 FEET.
       "FAIR" INDICATES FEW OR NO CLOUDS BELOW 12,000 FEET WITH NO
       SIGNIFICANT WEATHER AND/OR OBSTRUCTIONS TO VISIBILITY.

  * THESE STATIONS DO NOT REPORT WEATHER SUCH AS RAIN...SNOW OR FOG.

NEZ001>004-019>022-054>056-280500-
NEBRASKA PANHANDLE

CITY           SKY/WX    TMP DP  RH WIND       PRES   REMARKS
SCOTTSBLUFF    CLOUDY    50  44  80 W6        29.90R
ALLIANCE       CLEAR     46  43  89 W7        29.89R
CHADRON        PTCLDY    47  43  86 W6        29.88R
$$

NEZ057>060-069>072-079>082-280500-
SOUTHWEST NEBRASKA

CITY           SKY/WX    TMP DP  RH WIND       PRES   REMARKS
NORTH PLATTE   CLOUDY    54  51  90 N3        29.80S
IMPERIAL       CLEAR     51  47  86 NW7       29.84R
LEXINGTON      CLOUDY    60  54  80 NW14      29.75S
MCCOOK         PTCLDY    56  50  80 N10       29.77S
$$

NEZ005>010-023>029-035>040-094-280500-
NORTH CENTRAL NEBRASKA

CITY           SKY/WX    TMP DP  RH WIND       PRES   REMARKS
VALENTINE      CLOUDY    57  49  74 N3        29.83S
AINSWORTH      CLOUDY    58  52  82 NW8       29.82R
BROKEN BOW     CLOUDY    62  56  80 N8        29.77R THUNDER
O`NEILL        CLOUDY    64  60  86 N9        29.78R
ORD            RAIN      56  53  90 E7        29.77S FOG
$$

NEZ041-046>049-061>064-073>077-083>087-280500-
SOUTH CENTRAL NEBRASKA

CITY           SKY/WX    TMP DP  RH WIND       PRES   REMARKS
GRAND ISLAND   MOCLDY    59  55  87 E18G29    29.73R
HASTINGS       MOCLDY    59  53  80 E14       29.69R
KEARNEY *      CLOUDY    61  55  82 NE13      29.73S
YORK           LGT RAIN  59  57  94 NW7       29.78F
$$

NEZ011>018-030>034-042>045-280500-
NORTHEAST NEBRASKA

CITY           SKY/WX    TMP DP  RH WIND       PRES   REMARKS
NORFOLK        RAIN      58  56  93 W8        29.77R FOG
ALBION         LGT RAIN  58  53  83 E10       29.76F
BLAIR          RAIN      60  59  96 SW9       29.77R
FREMONT        TSTM      60  59  95 W15       29.76R
TEKAMAH        LGT RAIN  68  62  81 S35G41    29.74R
$$

NEZ050>053-065>068-078-088>093-280500-
SOUTHEAST NEBRASKA

CITY           SKY/WX    TMP DP  RH WIND       PRES   REMARKS
LINCOLN        LGT RAIN  61  57  87 N12       29.76S
OMAHA EPPLEY   TSTM      64  58  80 SW12G22   29.77R
FALLS CITY     CLOUDY    62  59  90 N7        29.74F
NEBRASKA CITY  CLOUDY    60  60 100 NW12      29.76F
$$

NEZ044-045-051>053-067-280500-
OMAHA AREA

CITY           SKY/WX    TMP DP  RH WIND       PRES   REMARKS
OMAHA EPPLEY   TSTM      64  58  80 SW12G22   29.77R
BLAIR          RAIN      60  59  96 SW9       29.77R
FREMONT        TSTM      60  59  95 W15       29.76R
$$




USA.gov is the U.S. government's official web portal to all federal, state and local government web resources and services.